When you browse on this site, cookies collect data to enhance your experience and personalize the content and advertising you see.
Visit our Privacy Policy to learn more. By continuing to use the site, you agree to this use of cookies and data.
  • In Czech Republic
  • List of Countries
  • For 7 days
  • Water Temperature
  • Satellite Maps
  • Weather Map
  • Weather Widgets
  • user-avatar
    Login

    Hourly Weather Ischgl

    Today, 22 April, Monday

    Time Temperature Precipitation Wind Pressure Humidity
    00:00 -5°C° 0 mm 3 mps 571 mmHg 79%
    01:00 -5°C° 0 mm 3 mps 571 mmHg 81%
    02:00 -5°C° 0 mm 3 mps 570 mmHg 81%
    03:00 -5°C° 0 mm 3 mps 570 mmHg 81%
    04:00 -5°C° 0 mm 3 mps 570 mmHg 82%
    05:00 -4°C° 0 mm 3 mps 570 mmHg 79%
    06:00 -2°C° 0 mm 3 mps 570 mmHg 76%
    07:00 -2°C° 0 mm 3 mps 570 mmHg 73%
    08:00 0°C° 0 mm 3 mps 571 mmHg 69%
    09:00 +2°C° 0 mm 3 mps 571 mmHg 65%
    10:00 +4°C° 0 mm 3 mps 572 mmHg 61%
    11:00 +5°C° 0 mm 3 mps 571 mmHg 57%
    12:00 +7°C° 0 mm 3 mps 571 mmHg 54%
    13:00 +7°C° 0 mm 3 mps 571 mmHg 51%
    14:00 +7°C° 0 mm 3 mps 571 mmHg 51%
    15:00 +8°C° 0 mm 3 mps 571 mmHg 51%
    16:00 +8°C° 0 mm 3 mps 570 mmHg 51%
    17:00 +5°C° 0 mm 3 mps 569 mmHg 59%
    18:00 +3°C° 0 mm 3 mps 568 mmHg 66%
    19:00 0°C° 0 mm 3 mps 566 mmHg 73%
    20:00 0°C° 0 mm 3 mps 566 mmHg 76%
    21:00 -1°C° 0 mm 3 mps 566 mmHg 80%
    22:00 -2°C° 0 mm 3 mps 565 mmHg 84%
    23:00 -2°C° 0 mm 3 mps 565 mmHg 86%

    Tomorrow, 23 April, Tuesday

    Time Temperature Precipitation Wind Pressure Humidity
    00:00 -2°C° 0 mm 3 mps 565 mmHg 87%
    01:00 -2°C° 0 mm 3 mps 565 mmHg 89%
    02:00 -2°C° 0 mm 3 mps 564 mmHg 88%
    03:00 -4°C° 0 mm 3 mps 564 mmHg 86%
    04:00 -4°C° 0 mm 3 mps 563 mmHg 85%
    05:00 -2°C° 0.1 mm 3 mps 564 mmHg 83%
    06:00 -1°C° 0.1 mm 3 mps 564 mmHg 80%
    07:00 -1°C° 0.1 mm 3 mps 564 mmHg 78%
    08:00 +1°C° 0 mm 3 mps 564 mmHg 73%
    09:00 +2°C° 0 mm 3 mps 565 mmHg 69%
    10:00 +4°C° 0 mm 3 mps 566 mmHg 64%
    11:00 +4°C° 0 mm 3 mps 566 mmHg 63%
    12:00 +5°C° 0 mm 3 mps 566 mmHg 61%
    13:00 +5°C° 0 mm 3 mps 566 mmHg 60%
    14:00 +5°C° 0.2 mm 3 mps 566 mmHg 61%
    15:00 +5°C° 0.2 mm 3 mps 566 mmHg 62%
    16:00 +5°C° 0.2 mm 3 mps 566 mmHg 63%
    17:00 +4°C° 0 mm 3 mps 566 mmHg 69%
    18:00 +2°C° 0 mm 3 mps 565 mmHg 75%
    19:00 +2°C° 0 mm 2 mps 565 mmHg 81%
    20:00 0°C° 0 mm 3 mps 565 mmHg 83%
    21:00 0°C° 0 mm 3 mps 565 mmHg 85%
    22:00 -1°C° 0 mm 3 mps 565 mmHg 87%
    23:00 -1°C° 0 mm 3 mps 565 mmHg 88%

    Day after tomorrow, 24 April, Wednesday

    Time Temperature Precipitation Wind Pressure Humidity
    00:00 -1°C° 0 mm 3 mps 565 mmHg 88%
    01:00 -2°C° 0 mm 3 mps 565 mmHg 88%
    02:00 -2°C° 0 mm 3 mps 566 mmHg 88%
    03:00 -2°C° 0 mm 3 mps 566 mmHg 88%
    04:00 -2°C° 0 mm 3 mps 566 mmHg 87%
    05:00 -1°C° 0 mm 3 mps 567 mmHg 85%
    06:00 0°C° 0 mm 3 mps 567 mmHg 82%
    07:00 0°C° 0 mm 4 mps 568 mmHg 79%
    08:00 +1°C° 0 mm 4 mps 569 mmHg 72%
    09:00 +3°C° 0 mm 4 mps 570 mmHg 65%
    10:00 +5°C° 0 mm 4 mps 571 mmHg 58%
    11:00 +5°C° 0 mm 4 mps 571 mmHg 56%
    12:00 +6°C° 0 mm 5 mps 571 mmHg 55%
    13:00 +6°C° 0 mm 5 mps 572 mmHg 54%
    14:00 +6°C° 0 mm 5 mps 571 mmHg 55%
    15:00 +6°C° 0 mm 5 mps 571 mmHg 57%
    16:00 +6°C° 0 mm 5 mps 571 mmHg 58%
    17:00 +5°C° 0 mm 5 mps 571 mmHg 65%
    18:00 +2°C° 0 mm 5 mps 570 mmHg 71%
    19:00 +1°C° 0 mm 4 mps 570 mmHg 78%
    20:00 0°C° 0 mm 4 mps 571 mmHg 80%
    21:00 0°C° 0 mm 4 mps 571 mmHg 83%
    22:00 -1°C° 0 mm 4 mps 572 mmHg 85%
    23:00 -1°C° 0 mm 4 mps 572 mmHg 87%

    25 April, Thursday

    Time Temperature Precipitation Wind Pressure Humidity
    00:00 -2°C° 0 mm 4 mps 572 mmHg 88%
    01:00 -2°C° 0 mm 4 mps 571 mmHg 89%
    02:00 -2°C° 0 mm 4 mps 571 mmHg 90%
    03:00 -3°C° 0 mm 4 mps 571 mmHg 90%
    04:00 -3°C° 0 mm 4 mps 571 mmHg 90%
    05:00 -2°C° 0 mm 4 mps 571 mmHg 85%
    06:00 -2°C° 0 mm 4 mps 572 mmHg 80%
    07:00 -1°C° 0 mm 5 mps 572 mmHg 76%
    08:00 +1°C° 0 mm 5 mps 573 mmHg 67%
    09:00 +2°C° 0 mm 5 mps 573 mmHg 58%
    10:00 +5°C° 0 mm 5 mps 574 mmHg 49%
    11:00 +6°C° 0 mm 5 mps 575 mmHg 49%
    12:00 +7°C° 0 mm 5 mps 575 mmHg 49%
    13:00 +7°C° 0 mm 5 mps 575 mmHg 49%
    14:00 +7°C° 0 mm 4 mps 575 mmHg 50%
    15:00 +7°C° 0 mm 4 mps 575 mmHg 52%
    16:00 +7°C° 0 mm 4 mps 575 mmHg 53%
    17:00 +6°C° 0 mm 4 mps 574 mmHg 60%
    18:00 +5°C° 0 mm 3 mps 573 mmHg 66%
    19:00 +3°C° 0 mm 3 mps 573 mmHg 73%
    20:00 +2°C° 0 mm 3 mps 572 mmHg 79%
    21:00 +1°C° 0 mm 3 mps 572 mmHg 84%
    22:00 0°C° 0 mm 4 mps 572 mmHg 89%
    23:00 -1°C° 0 mm 4 mps 572 mmHg 90%

    26 April, Friday

    Time Temperature Precipitation Wind Pressure Humidity
    00:00 -1°C° 0 mm 4 mps 571 mmHg 90%
    01:00 -1°C° 0 mm 4 mps 571 mmHg 91%
    02:00 -1°C° 0 mm 4 mps 571 mmHg 91%
    03:00 -2°C° 0 mm 4 mps 571 mmHg 90%
    04:00 -2°C° 0 mm 4 mps 570 mmHg 90%
    05:00 -1°C° 0 mm 4 mps 571 mmHg 85%
    06:00 0°C° 0 mm 4 mps 571 mmHg 80%
    07:00 0°C° 0 mm 4 mps 572 mmHg 74%
    08:00 +2°C° 0.5 mm 3 mps 572 mmHg 73%
    09:00 +2°C° 0.5 mm 3 mps 573 mmHg 72%
    10:00 +2°C° 0.5 mm 3 mps 574 mmHg 71%
    11:00 0°C° 2.1 mm 3 mps 573 mmHg 79%
    12:00 -2°C° 2.1 mm 3 mps 572 mmHg 86%
    13:00 -4°C° 2.1 mm 4 mps 571 mmHg 94%
    14:00 -5°C° 1.2 mm 3 mps 571 mmHg 93%
    15:00 -5°C° 1.2 mm 3 mps 571 mmHg 92%
    16:00 -6°C° 1.2 mm 3 mps 571 mmHg 90%
    17:00 -5°C° 0.4 mm 2 mps 572 mmHg 91%
    18:00 -5°C° 0.4 mm 2 mps 572 mmHg 92%
    19:00 -5°C° 0.4 mm 2 mps 572 mmHg 94%
    20:00 -5°C° 0.2 mm 2 mps 573 mmHg 94%
    21:00 -5°C° 0.2 mm 2 mps 573 mmHg 94%
    22:00 -6°C° 0.2 mm 2 mps 573 mmHg 95%
    23:00 -6°C° 0.2 mm 2 mps 573 mmHg 95%

    27 April, Saturday

    Time Temperature Precipitation Wind Pressure Humidity
    00:00 -6°C° 0.2 mm 2 mps 574 mmHg 95%
    01:00 -6°C° 0.2 mm 2 mps 574 mmHg 95%
    02:00 -6°C° 0 mm 2 mps 574 mmHg 95%
    03:00 -6°C° 0 mm 1 mps 574 mmHg 96%
    04:00 -6°C° 0 mm 1 mps 574 mmHg 96%
    05:00 -6°C° 0 mm 1 mps 574 mmHg 93%
    06:00 -4°C° 0 mm 1 mps 575 mmHg 91%
    07:00 -3°C° 0 mm 1 mps 575 mmHg 89%
    08:00 -2°C° 0 mm 1 mps 576 mmHg 85%
    09:00 0°C° 0 mm 1 mps 576 mmHg 81%
    10:00 +1°C° 0 mm 1 mps 577 mmHg 77%
    11:00 +2°C° 0 mm 1 mps 577 mmHg 75%
    12:00 +3°C° 0 mm 1 mps 577 mmHg 72%
    13:00 +2°C° 0 mm 2 mps 577 mmHg 70%
    14:00 +3°C° 0 mm 2 mps 577 mmHg 70%
    15:00 +4°C° 0 mm 1 mps 577 mmHg 71%
    16:00 +4°C° 0 mm 1 mps 577 mmHg 71%
    17:00 +3°C° 0.1 mm 1 mps 577 mmHg 77%
    18:00 +2°C° 0.1 mm 1 mps 576 mmHg 84%
    19:00 +1°C° 0.1 mm 1 mps 576 mmHg 91%
    20:00 +1°C° 0.1 mm 1 mps 576 mmHg 93%
    21:00 0°C° 0.1 mm 1 mps 576 mmHg 94%
    22:00 0°C° 0.1 mm 1 mps 576 mmHg 96%
    23:00 0°C° 0 mm 1 mps 576 mmHg 96%
    Show more